Flag for Germany Weather past 2 weeks in Frankfurt, Hesse, Germany

Now
39 °F

Passing clouds.


Feels Like: 36 °F
Forecast: 35 / 51 °F
Wind: 5 mph from East

Location: Frankfurt-M-Flughafen Airport

Current Time: Mar 6, 2015 at 11:28:26 PM

Latest Report: Mar 6, 2015 at 10:20 PM


Visibility: N/A

Pressure: 30.57 "Hg

Humidity: 75%

Dew point: 32 °F

Location of FrankfurtLocation

Historic Weather in Frankfurt — Graph

°F

Frankfurt temperature yesterday

Maximum temperature yesterday: 46 °F (at 1:50 PM)
Minimum temperature yesterday: 34 °F (at 10:20 PM)
Average temperature yesterday: 41 °F

Past Weeks' High & Low Weather Summary

 TemperatureHumidityPressure
High52 °F (Feb 20, 1:50 PM)100% (Feb 22, 2:50 AM)30.66 "Hg (Feb 22, 2:50 AM)
Low28 °F (Feb 28, 6:50 AM)35% (Mar 2, 2:50 PM)29.45 "Hg (Feb 21, 7:20 AM)
Average40 °F77%29.99 "Hg
* Reported Feb 19 9:20 PM — Mar 6 9:50 PM, Frankfurt, Weather by CustomWeather, © 2015

Note: Actual official high and low records may vary slightly from our data, if they occured in-between our weather recording intervals... More about our weather records

Advertising

Frankfurt weather history for previous 24 hours

 ConditionsComfort  
Time TempWeatherWind HumidityBarometerVisibility
9:50 PM
Fri, Mar 6
39 °FPassing clouds.2 mph75%30.57 "HgN/A
9:20 PM41 °FPassing clouds.3 mph70%30.57 "HgN/A
8:50 PM41 °FPassing clouds.3 mph70%30.57 "HgN/A
8:20 PM43 °FPassing clouds.3 mph71%30.57 "HgN/A
7:50 PM43 °FPassing clouds.2 mph66%30.57 "HgN/A
7:20 PM43 °FPassing clouds.2 mph71%30.57 "HgN/A
6:50 PM45 °FPassing clouds.1 mph66%30.57 "HgN/A
6:20 PM46 °FPassing clouds.2 mph57%30.57 "HgN/A
5:50 PM46 °FPartly sunny.3 mph57%30.57 "HgN/A
5:20 PM48 °FSunny.5 mph54%30.54 "Hg10 mi
4:50 PM48 °FPartly sunny.5 mph54%30.57 "HgN/A
4:20 PM48 °FPartly sunny.2 mph50%30.57 "HgN/A
3:50 PM48 °FPartly sunny.5 mph54%30.57 "HgN/A
3:20 PM48 °FPartly sunny.5 mph58%30.60 "HgN/A
2:50 PM48 °FPartly sunny.7 mph58%30.60 "HgN/A
2:20 PM46 °FPartly sunny.7 mph62%30.60 "HgN/A
1:50 PM46 °FPartly sunny.6 mph62%30.60 "HgN/A
1:20 PM46 °FPartly sunny.9 mph62%30.63 "HgN/A
12:50 PM48 °FPartly sunny.10 mph58%30.63 "HgN/A
12:20 PM46 °FScattered clouds.8 mph62%30.63 "HgN/A
11:50 AM46 °FScattered clouds.8 mph62%30.63 "HgN/A
11:20 AM45 °FScattered clouds.7 mph61%30.66 "HgN/A
10:50 AM45 °FScattered clouds.6 mph71%30.66 "HgN/A
10:20 AM43 °FScattered clouds.6 mph71%30.66 "HgN/A
9:50 AM41 °FScattered clouds.6 mph76%30.66 "HgN/A
9:20 AM39 °FScattered clouds.8 mph75%30.66 "HgN/A
8:50 AM37 °FPartly sunny.6 mph81%30.66 "HgN/A
8:20 AM36 °FPassing clouds.3 mph87%30.66 "HgN/A
7:50 AM34 °FScattered clouds.3 mph93%30.66 "HgN/A
7:20 AM34 °FPartly sunny.3 mph93%30.63 "HgN/A
6:50 AM34 °FPassing clouds.7 mph93%30.63 "HgN/A
6:20 AM32 °FPassing clouds.6 mph93%30.63 "HgN/A
5:50 AM32 °FPassing clouds.6 mph93%30.63 "HgN/A
5:20 AM30 °FPartly cloudy.3 mph93%30.63 "HgN/A
4:50 AM32 °FPartly cloudy.5 mph93%30.63 "HgN/A
4:20 AM30 °FPassing clouds.2 mph100%30.63 "HgN/A
3:50 AM30 °FPartly cloudy.2 mph93%30.63 "HgN/A
3:20 AM30 °FPartly cloudy.3 mph93%30.63 "HgN/A
2:50 AM32 °FPartly cloudy.1 mph93%30.63 "HgN/A
2:20 AM32 °FPassing clouds.2 mph93%30.63 "HgN/A
1:50 AM34 °FPassing clouds.1 mph87%30.63 "HgN/A
1:20 AM34 °FPartly cloudy.No wind93%30.63 "HgN/A
12:50 AM34 °FPartly cloudy.1 mph87%30.63 "HgN/A
12:20 AM34 °FClear.2 mph87%30.63 "Hg10 mi
11:50 PM
Thu, Mar 5
34 °FClear.3 mph87%30.63 "Hg10 mi
11:20 PM34 °FPassing clouds.2 mph93%30.63 "HgN/A
Weather by CustomWeather, © 2015

See weather overviewHow to use our weather pages